User: anonymous   Login
Location: *
(31.2983°S, 151.4094°E)
Time: 16:13:27
(UTC+00:00)
Language:

Okean-O - Orbit

View from above orbital plane
View from above orbital plane
View from above satellite
View from above satellite

Ground track
Ground track

The orbit data is extracted from the following two-line orbital elements,

1 25860U 99039A   19287.92583310 +.00000027 +00000-0 +11553-4 0  9997
2 25860 098.2266 297.4646 0000845 072.6101 287.5200 14.76625821089135
Epoch (UTC): 14 October 2019 22:13:11
Eccentricity: 0.0000845
inclination: 98.2266°
perigee height: 639 km
apogee height: 640 km
right ascension of ascending node: 297.4646°
argument of perigee: 72.6101°
revolutions per day: 14.76625821
mean anomaly at epoch: 287.5200°
orbit number at epoch: 8913

The dashed part of the orbit path shows where the satellite is in the earth's shadow,  

DLR